Weather Roundup
Issued by NWS

Home | Current Version | Previous Version | Graphics & Text | Print | Product List | Glossary Off
Versions: 1 2 3 4 5 6 7 8 9 10 11 12 13 14 15 16 17 18 19 20 21 22 23 24 25 26 27 28 29 30 31 32 33 34 35 36 37 38 39 40 41 42 43 44 45 46 47 48 49 50

000
NZUS93 KARX 250359
HRRWXR

CURRENT HOURLY OBSERVATIONS ACROSS
MUCH OF THE UPPER MISSISSIPPI VALLEY
NATIONAL WEATHER SERVICE LA CROSSE WI
1100 PM CDT TUE MAY 24 2016


...SOUTHEAST MINNESOTA...


CITY           SKY/WX    TMP DP  RH WIND       PRES   REMARKS
ROCHESTER      CLEAR     67  57  70 E5        29.94S
ROCHESTER/MAYO FAIR      71  58  62 E7        29.93S
WINONA         CLEAR     66  61  82 CALM      29.93S
AUSTIN         CLEAR     64  61  88 E3        29.92S
ALBERT LEA     CLEAR     66  57  72 CALM      29.91S
DODGE CENTER   CLEAR     64  54  68 E5        29.93F
PRESTON        CLEAR     70  58  65 E6        29.94S
OWATONNA       CLEAR     70  55  60 SE5       29.92S
FARIBAULT      CLEAR     64  55  72 CALM      29.93R
$$

...ELSEWHERE IN MINNESOTA...


CITY           SKY/WX    TMP DP  RH WIND       PRES   REMARKS
MINNEAPOLIS    PTCLDY    74  54  49 SE7       29.91R
INTNL FALLS    CLEAR     57  51  80 E6        29.97S
DULUTH         FOG       53  52  96 E13       30.00R VSB 3/4
RED WING       CLEAR     63  57  82 E3        29.91S
REDWOOD FALLS  CLEAR     70  50  49 SE6       29.86S
MANKATO        CLEAR     72  55  56 SE7       29.91S
WORTHINGTON    CLEAR     71  62  73 S13       29.89S
FAIRMONT       CLEAR     70  46  43 S8        29.89F
$$

...SOUTHWEST WISCONSIN...


CITY           SKY/WX    TMP DP  RH WIND       PRES   REMARKS
LA CROSSE      CLEAR     69  59  70 SE8       29.92S
PRAIRIE DU CHI CLEAR     68  60  75 CALM      29.92S
BOSCOBEL       CLEAR     63  60  90 CALM      29.93S
LONE ROCK      NOT AVBL
PLATTEVILLE    CLEAR     72  60  65 NE5       29.95S
FORT MC COY    CLEAR     60  57  89 CALM      29.95S
MAUSTON-NEW LI CLEAR     61  58  90 CALM      29.94S
VIROQUA        FAIR      67  55  64 E3        29.95S
WIS DELLS      CLEAR     63  56  78 CALM      29.95S
$$

...ELSEWHERE IN WISCONSIN...


CITY           SKY/WX    TMP DP  RH WIND       PRES   REMARKS
MILWAUKEE      PTCLDY    63  49  60 SE3       29.96S
MADISON        PTCLDY    67  60  78 CALM      29.95S
GREEN BAY      CLEAR     65  58  78 CALM      29.94S
EAU CLAIRE     NOT AVBL
BLACK RVR FLS  FAIR      62  56  81 CALM      29.93F
MEDFORD        PTCLDY    59  59  99 CALM      29.98R
WAUSAU         PTCLDY    65  58  78 CALM      29.95R
WIS RAPIDS     CLEAR     61  56  83 CALM      29.96S
MARSHFIELD     CLEAR     66  56  70 CALM      29.95S
RICE LAKE      CLEAR     62  56  82 CALM      29.97R
$$

...NORTHEAST IOWA...


CITY           SKY/WX    TMP DP  RH WIND       PRES   REMARKS
WATERLOO       CLEAR     68  60  75 E5        29.89F
DUBUQUE        PTCLDY    70  59  68 SE3       29.94F HAZE
DECORAH        PTCLDY    72  61  68 SE7       29.92S
MASON CITY     CLEAR     65  61  87 CALM      29.92S
CHARLES CITY   CLEAR     70  61  73 CALM      29.92S
OELWEIN        PTCLDY    70  59  68 E7        29.93S
$$

...ELSEWHERE IN IOWA...


CITY           SKY/WX    TMP DP  RH WIND       PRES   REMARKS
DES MOINES     PTCLDY    72  61  68 SE8       29.90S
IOWA CITY      CLEAR     73  64  73 S5        29.94S
FORT DODGE     CLEAR     64  59  82 CALM      29.90S
MARSHALLTOWN   CLEAR     69  61  75 S8        29.91R
CEDAR RAPIDS   CLEAR     69  65  86 S7        29.92S
$$

...NORTHERN ILLINOIS...


CITY           SKY/WX    TMP DP  RH WIND       PRES   REMARKS
CHICAGO-OHARE  CLOUDY    76  56  49 S10       29.96S
CHICAGO-MIDWAY CLOUDY    78  55  44 S9        29.97S
MOLINE         CLOUDY    74  62  66 SW7       29.93S
ROCKFORD       LGT RAIN  74  60  61 W3        29.97R
PEORIA         CLOUDY    74  62  66 SE3       29.97S
$$

NOTE: "FAIR" INDICATES FEW OR NO CLOUDS BELOW 12,000 FEET WITH NO
SIGNIFICANT WEATHER AND/OR OBSTRUCTIONS TO VISIBILITY. WIND
SPEEDS ARE IN MILES-PER-HOUR.




USA.gov is the U.S. government's official web portal to all federal, state and local government web resources and services.